Oshkosh, WI

2:18 PM CST on November 20, 2019 (GMT -0600)
Wittman Regional

Weather History for KOSH - October, 2019

Change the Weather History Date:

Wednesday, October 23, 2019

  Actual Average Record
Temperature  
Mean Temperature 46 °F -  
Max Temperature 53 °F 56 °F 82 °F (1963)
Min Temperature 39 °F 37 °F 17 °F (1969)
Degree Days  
Heating Degree Days 20    
Moisture  
Dew Point 35 °F    
Average Humidity 67    
Maximum Humidity 82    
Minimum Humidity 50    
Precipitation  
Precipitation 0.01 in - - ()
Sea Level Pressure  
Sea Level Pressure 29.86 in    
Wind  
Wind Speed 6 mph ()    
Max Wind Speed 13 mph    
Max Gust Speed 23 mph    
Visibility 10.0 miles    
Events Rain    
Averages and records for this station are not official NWS values.
T = Trace of Precipitation, MM = Missing Value Source: Averaged Metar Reports

Daily Weather History Graph

Daily Weather History Graph

Search for Another Location

Airport or City:

Astronomy

Oct. 23, 2019 Rise Set
Actual Time 7:18 AM CDT 5:57 PM CDT
Civil Twilight 6:49 AM CDT 6:27 PM CDT
Nautical Twilight 6:15 AM CDT 7:00 PM CDT
Astronomical Twilight 5:42 AM CDT 7:34 PM CDT
Moon 1:21 AM CDT (10/23) 4:01 PM CDT (10/23)
Length of Visible Light 11h 38m
Length of Day
10h 39m
Waning Crescent, 26% of the Moon is Illuminated
Oct 23
Waning Crescent
Oct 27
New
Nov 4
First Quarter
Nov 12
Full
Nov 19
Last Quarter

Hourly Weather History & Observations

Time (CDT) Temp. Windchill Dew Point Humidity Pressure Visibility Wind Dir Wind Speed Gust Speed Precip Events Conditions
12:53 AM 44.1 °F 40.8 °F 35.1 °F 71% 29.65 in 10.0 mi Variable 5.8 mph 18.4 mph N/A   Overcast
1:53 AM 44.1 °F 40.1 °F 35.1 °F 71% 29.67 in 10.0 mi West 6.9 mph 23.0 mph 0.00 in   Overcast
2:53 AM 44.1 °F 40.1 °F 34.0 °F 68% 29.68 in 10.0 mi SW 6.9 mph - N/A   Overcast
3:53 AM 43.0 °F 40.3 °F 33.1 °F 68% 29.68 in 10.0 mi Variable 4.6 mph 18.4 mph N/A   Scattered Clouds
4:53 AM 43.0 °F 38.2 °F 33.1 °F 68% 29.71 in 10.0 mi WSW 8.1 mph - N/A   Overcast
5:53 AM 43.0 °F 38.8 °F 33.1 °F 68% 29.74 in 10.0 mi Variable 6.9 mph 16.1 mph N/A   Overcast
6:53 AM 41.0 °F 35.8 °F 32.0 °F 70% 29.77 in 10.0 mi WSW 8.1 mph - N/A   Overcast
7:53 AM 39.0 °F 32.3 °F 30.9 °F 73% 29.80 in 10.0 mi SW 10.4 mph 21.9 mph N/A   Clear
8:53 AM 41.0 °F 33.9 °F 32.0 °F 70% 29.83 in 10.0 mi SW 12.7 mph 19.6 mph N/A   Partly Cloudy
9:53 AM 43.0 °F 37.7 °F 33.1 °F 68% 29.85 in 10.0 mi West 9.2 mph 17.3 mph N/A   Clear
10:53 AM 45.0 °F 40.1 °F 34.0 °F 65% 29.87 in 10.0 mi West 9.2 mph 20.7 mph N/A   Partly Cloudy
11:53 AM 46.0 °F 40.6 °F 33.1 °F 61% 29.86 in 10.0 mi West 11.5 mph 20.7 mph N/A   Clear
12:53 PM 48.9 °F - 35.1 °F 59% 29.87 in 10.0 mi West 9.2 mph 20.7 mph N/A   Clear
1:53 PM 51.1 °F - 34.0 °F 52% 29.87 in 10.0 mi WSW 10.4 mph 19.6 mph N/A   Clear
2:53 PM 52.0 °F - 34.0 °F 50% 29.86 in 10.0 mi West 8.1 mph - N/A   Clear
3:53 PM 52.0 °F - 34.0 °F 50% 29.87 in 10.0 mi West 6.9 mph - N/A   Clear
4:53 PM 50.0 °F - 34.0 °F 54% 29.88 in 10.0 mi West 3.5 mph - N/A   Clear
5:53 PM 50.0 °F - 35.1 °F 57% 29.91 in 10.0 mi Calm Calm - N/A   Overcast
6:53 PM 48.0 °F - 36.0 °F 63% 29.96 in 10.0 mi West 5.8 mph - N/A   Mostly Cloudy
7:53 PM 46.9 °F - 35.1 °F 63% 29.99 in 10.0 mi WNW 10.4 mph 19.6 mph N/A   Overcast
8:53 PM 44.1 °F - 37.9 °F 79% 30.01 in 10.0 mi Calm Calm - 0.01 in Rain Light Rain
9:53 PM 43.0 °F 40.3 °F 37.9 °F 82% 30.01 in 10.0 mi NW 4.6 mph - 0.00 in   Overcast
10:17 PM 44.1 °F 40.8 °F 39.0 °F 82% 29.99 in 10.0 mi NW 5.8 mph - N/A   Overcast
10:53 PM 44.1 °F 41.5 °F 37.9 °F 79% 30.02 in 10.0 mi NW 4.6 mph - N/A   Overcast
11:24 PM 43.0 °F 38.8 °F 36.0 °F 76% 30.01 in 10.0 mi NW 6.9 mph - N/A   Overcast
11:53 PM 43.0 °F 40.3 °F 36.0 °F 76% 30.03 in 10.0 mi NW 4.6 mph - N/A   Overcast